Location: Unspecified
(45.0173°N, 35.2345°E)
Time: 22:54:44
(UTC+02:00)

BlueWalker 3 - Visible Passes

Search period start: 16 January 2026 00:00
Search period end: 26 January 2026 00:00
Orbit: 451 x 463 km, 53.2° (Epoch: 16 January)

Date Brightness Start Highest point End Pass type
(mag) Time Alt. Az. Time Alt. Az. Time Alt. Az.
19 Jan 4.1 18:58:23 10° SW 18:59:23 17° SSW 18:59:23 17° SSW visible
20 Jan 2.7 18:23:13 10° SSW 18:25:54 33° SSE 18:25:54 33° SSE visible
21 Jan 2.9 17:48:08 10° SSW 17:51:14 28° SE 17:52:19 24° ESE visible
21 Jan 4.6 19:25:08 10° WSW 19:26:05 17° W 19:26:05 17° W visible
22 Jan 3.3 17:13:09 10° S 17:15:58 22° SE 17:18:40 11° E visible
22 Jan 2.7 18:49:40 10° WSW 18:52:25 45° W 18:52:25 45° W visible
23 Jan 1.8 18:14:15 10° WSW 18:17:49 73° NNW 18:18:41 48° NE visible
24 Jan 1.7 17:38:52 10° SW 17:42:26 89° SE 17:44:53 19° ENE visible
24 Jan 4.3 19:17:12 10° WNW 19:18:37 19° WNW 19:18:37 19° WNW visible
25 Jan 1.8 17:03:31 10° SW 17:07:04 70° SE 17:10:37 10° ENE visible
25 Jan 3.2 18:41:38 10° W 18:44:46 29° NNW 18:44:46 29° NNW visible
